Location: Rounton
(54.4000°N, 1.3500°W)
Time: 22:39:49
(UTC+00:00)

Explorer 7 - Pass Details

Date: 01 December 2021
Orbit: 483 x 674 km, 50.3° (Epoch: 17 January)

Event Time Altitude Azimuth Distance (km) Brightness Sun altitude
Rises 08:19:16 0° 240° (WSW) 2,732 10.2 0.9°
Reaches altitude 10° 08:21:40 10° 232° (SW) 1,804 9.4 1.2°
Maximum altitude 08:25:26 37° 165° (SSE) 826 8.5 1.6°
Drops below altitude 10° 08:29:03 10° 97° (E) 1,720 10.3 2.0°
Sets 08:31:17 0° 89° (E) 2,584 11.0 2.2°
